Location: Camaret
(48.2753°N, 4.5961°W)
Time: 23:45:03
(UTC+00:00)

Meteor 2-16 Rocket - Pass Details

Date: 29 October 2020
Orbit: 941 x 956 km, 82.6° (Epoch: 26 November)

Event Time Altitude Azimuth Distance (km) Brightness Sun altitude
Rises 17:55:31 0° 350° (N) 3,619 7.5 -9.2°
Reaches altitude 10° 17:58:01 10° 350° (N) 2,670 6.8 -9.6°
Maximum altitude 18:04:08 89° 264° (W) 951 4.5 -10.6°
Drops below altitude 10° 18:10:13 10° 173° (S) 2,658 6.8 -11.6°
Sets 18:12:42 0° 173° (S) 3,601 7.5 -12.0°
